{"data":{"norad_id":59690,"epoch":"2026-05-24T22:48:00.063072Z","epoch_age_seconds":86210,"freshness":"FRESH","line1":"1 59690U 24086J   26144.95000073  .00000379  00000+0  23317-4 0  9998","line2":"2 59690  43.0028 341.5687 0001361 269.4222  90.6474 15.27577904115868","mean_motion":15.27577904,"eccentricity":0.0001361,"inclination_deg":43.0028,"raan_deg":341.5687,"arg_perigee_deg":269.4222,"mean_anomaly_deg":90.6474,"bstar":2.3317e-5,"rev_number":11586,"period_min":94.266878057697,"perigee_km":482.121563943,"apogee_km":483.98918050672,"semimajor_km":6861.1923722249,"source":"CELESTRAK","updated_at":"2026-05-25T13:38:19.024670Z"}}